This is the latest recevied weather packets stored in our database for station/object WI0K. If no packets are shown the sender has not sent any weather packets the latest 10 day(s).
| Time | Temp. | Humidity | Pressure | Rain* | Wind** | Luminosity | Snow |
|---|---|---|---|---|---|---|---|
| 1777926007 | 19.44° C | 24% | 1009.1 hPa | 0 mm | - | 181 W/m² | - |
| 1777925760 | 19.44° C | 24% | 1009.1 hPa | 0 mm | - | 181 W/m² | - |
| 1777925459 | 18.89° C | 25% | 1009.1 hPa | 0 mm | - | 216 W/m² | - |
| 1777925159 | 19.44° C | 26% | 1009.1 hPa | 0 mm | - | 225 W/m² | - |
| 1777924858 | 19.44° C | 25% | 1009.2 hPa | 0 mm | - | 217 W/m² | - |
| 1777924557 | 20° C | 23% | 1009.1 hPa | 0 mm | - | 204 W/m² | - |
| 1777924256 | 20° C | 22% | 1009.1 hPa | 0 mm | - | 204 W/m² | - |
| 1777923956 | 20° C | 22% | 1009.1 hPa | 0 mm | - | 216 W/m² | - |
| 1777923655 | 20.56° C | 21% | 1009.1 hPa | 0 mm | - | 225 W/m² | - |
| 1777923354 | 20.56° C | 23% | 1009.2 hPa | 0 mm | - | 226 W/m² | - |
| 1777923054 | 21.11° C | 21% | 1009.1 hPa | 0 mm | - | 239 W/m² | - |
| 1777922753 | 21.11° C | 20% | 823.5 hPa | 0 mm | - | 252 W/m² | - |
| 1777922452 | 21.11° C | 20% | 823.5 hPa | 0 mm | - | 260 W/m² | - |
| 1777922152 | 21.11° C | 20% | 823.4 hPa | 0 mm | - | 273 W/m² | - |
| 1777921851 | 21.11° C | 21% | 823.5 hPa | 0 mm | - | 283 W/m² | - |
| 1777921551 | 21.11° C | 21% | 823.4 hPa | 0 mm | - | 290 W/m² | - |
| 1777921501 | 21.67° C | 20% | 823.4 hPa | 0 mm | - | 290 W/m² | - |
| 1777921250 | 21.67° C | 20% | 823.4 hPa | 0 mm | - | 290 W/m² | - |
| 1777920949 | 21.67° C | 21% | 1009.1 hPa | 0 mm | - | 359 W/m² | - |
| 1777920649 | 21.67° C | 21% | 1009.1 hPa | 0 mm | - | 484 W/m² | - |
| 1777920348 | 22.78° C | 21% | 1009 hPa | 0 mm | - | 700 W/m² | - |
| 1777920048 | 22.78° C | 22% | 1009.1 hPa | 0 mm | - | 818 W/m² | - |
| 1777919747 | 22.78° C | 22% | 1009.1 hPa | 0 mm | - | 837 W/m² | - |
| 1777919447 | 22.78° C | 22% | 1009.2 hPa | 0 mm | - | 999 W/m² | - |
| 1777919146 | 22.22° C | 23% | 1009.2 hPa | 0 mm | - | 832 W/m² | - |
* Rain latest hour (hover to see other rain measurements)
** Current wind speed in m/s (hover to see current wind gust speed)